LiveATC.Net - Listen to live air traffic control over the Internet! Contact LiveATC.net for advertising information


ICAO: KCNO  IATA: CNO   Airport: Chino Airport
City: Chino   State/Province: California
Country: United States   Continent: North America
KCNO METAR Weather: KCNO 232053Z 26011KT 10SM CLR 36/12 A2994 RMK AO2 SLP133 T03560117 56021
KCNO Flight Activity (FlightAware)
KCNO Airport Info   (AirNav) (iFlightPlanner)
KCNO Tower
Feed Status: DOWN
Last heard on: 2013-12-11 21:42:04 (224 days 0 hours 4 minutes ago)
KCNO Tower Audio Archives
FacilityFrequency
Chino Tower118.500


NOTICE

Unauthorized use prohibited. See LiveATC.net Terms of Service


Find LiveATC Audio Streams


Airport/ARTCC Code

Frequency
(e.g., 124.400, 128.75)
Site-wide search

Browse LiveATC Feeds
LiveATC Coverage Map
Top 50 LiveATC Feeds
Bad Weather Areas

LiveATC FAQ
Offer a LiveATC Feed
Contact LiveATC.net
Press Inquiries

LiveATC on iPhone
LiveATC on Android

LiveATC Mobile
(Mobile browser)

ATC Audio Archives
Interesting Recordings

LiveATC Forums


Home Page
About LiveATC.net
Make a Donation
LiveATC Bookstore

Terms of Use
Privacy Policy

ATC/Radar Sites
U.S. ARTCC Freqs
Canadian Air Freqs

AIRMETs/SIGMETs

FAA Airport Status
Nat'l Airspace Status
Arrival Demand Charts


Server Software By:
Icecast.org
Liquidsoap

Please make a donation to help us keep growing!